TimeCDT,TemperatureF,Dew PointF,Humidity,Sea Level PressureIn,VisibilityMPH,Wind Direction,Wind SpeedMPH,Gust SpeedMPH,PrecipitationIn,Events,Conditions,WindDirDegrees,DateUTC
12:52 AM,60.1,51.1,72,30.01,10.0,Calm,Calm,-,N/A,,Clear,0,2012-09-30 05:52:00
1:52 AM,57.9,52.0,81,30.00,10.0,Calm,Calm,-,N/A,,Clear,0,2012-09-30 06:52:00
2:52 AM,57.0,53.1,87,30.00,10.0,Calm,Calm,-,N/A,,Clear,0,2012-09-30 07:52:00
3:52 AM,57.9,51.1,78,29.98,10.0,Calm,Calm,-,N/A,,Clear,0,2012-09-30 08:52:00
4:52 AM,57.0,51.1,81,29.98,10.0,Calm,Calm,-,N/A,,Clear,0,2012-09-30 09:52:00
5:52 AM,57.0,51.1,81,29.98,10.0,Calm,Calm,-,N/A,,Clear,0,2012-09-30 10:52:00
6:52 AM,57.0,51.1,81,29.97,10.0,Calm,Calm,-,N/A,,Clear,0,2012-09-30 11:52:00
7:52 AM,57.0,51.1,81,29.98,10.0,Calm,Calm,-,N/A,,Clear,0,2012-09-30 12:52:00
8:52 AM,61.0,53.1,75,29.99,10.0,Calm,Calm,-,N/A,,Clear,0,2012-09-30 13:52:00
9:52 AM,64.0,52.0,65,29.99,10.0,Variable,3.5,-,N/A,,Clear,0,2012-09-30 14:52:00
10:52 AM,66.9,53.1,61,29.99,10.0,North,4.6,-,0.00,Rain,Light Rain,10,2012-09-30 15:52:00
11:52 AM,71.1,52.0,51,29.98,10.0,NE,4.6,-,0.00,,Clear,40,2012-09-30 16:52:00
12:52 PM,72.0,52.0,49,29.96,10.0,NE,4.6,-,N/A,,Clear,50,2012-09-30 17:52:00
1:52 PM,73.0,50.0,44,29.94,10.0,Variable,3.5,-,N/A,,Clear,0,2012-09-30 18:52:00
2:52 PM,73.0,50.0,44,29.92,10.0,Variable,4.6,-,N/A,,Clear,0,2012-09-30 19:52:00
3:52 PM,73.0,51.1,46,29.90,10.0,North,5.8,-,N/A,,Clear,10,2012-09-30 20:52:00
4:52 PM,73.0,50.0,44,29.89,10.0,Variable,3.5,-,N/A,,Clear,0,2012-09-30 21:52:00
5:52 PM,70.0,57.0,63,29.89,10.0,Calm,Calm,-,N/A,,Clear,0,2012-09-30 22:52:00
6:52 PM,66.9,55.9,68,29.89,10.0,NNW,4.6,-,N/A,,Clear,340,2012-09-30 23:52:00
7:52 PM,63.0,55.0,75,29.89,10.0,Calm,Calm,-,N/A,,Clear,0,2012-10-01 00:52:00
8:52 PM,60.1,53.1,78,29.89,10.0,North,4.6,-,N/A,,Clear,350,2012-10-01 01:52:00
9:52 PM,61.0,52.0,72,29.89,10.0,North,5.8,-,N/A,,Clear,360,2012-10-01 02:52:00
10:52 PM,59.0,52.0,78,29.89,10.0,North,3.5,-,N/A,,Clear,350,2012-10-01 03:52:00
11:52 PM,57.9,53.1,84,29.88,10.0,Calm,Calm,-,N/A,,Clear,0,2012-10-01 04:52:00